Tracking 20710 objects as of 30-May-2020
HD Live streaming from Space Station
objects crossing your sky now

FLOCK 3M 3

Track FLOCK 3M 3 now!
10-day predictions
FLOCK 3M 3 is classified as:


NORAD ID: 42996
Int'l Code: 2017-068K
Perigee: 496.9 km
Apogee: 518.8 km
Inclination: 97.4 °
Period: 94.6 minutes
Semi major axis: 6878 km
RCS: Unknown
Launch date: October 31, 2017
Source: United States (US)
Launch site: AIR FORCE WESTERN TEST RANGE (AFWTR)
aabbcc
Your satellite tracking list
Your tracking list is empty




NASA's NSSDC Master Catalog

Two Line Element Set (TLE):
1 42996U 17068K   20150.86683573 +.00001595 +00000-0 +73348-4 0  9995
2 42996 097.3885 257.5688 0015884 168.6081 191.5518 15.21694543142927
Source of the keplerian elements: AFSPC